Stations météo

Publicité
Bergerac, France (7530): Température de l'air & dewpoint: 16.07.2019 18:00:00 - 22.07.2019 18:00:00 (CEST)Bergerac, France (7530): Température de l'air 5cm: 16.07.2019 18:00:00 - 22.07.2019 18:00:00 (CEST)Bergerac, France (7530): Température de l'air -20cm & Température de l'air -100cm: 16.07.2019 18:00:00 - 22.07.2019 18:00:00 (CEST)Bergerac, France (7530): Vitesse du vent & gusts: 16.07.2019 18:00:00 - 22.07.2019 18:00:00 (CEST)Bergerac, France (7530): Direction du vent: 16.07.2019 18:00:00 - 22.07.2019 18:00:00 (CEST)Bergerac, France (7530): reduced air pressure: 16.07.2019 18:00:00 - 22.07.2019 18:00:00 (CEST)Bergerac, France (7530): visibility: 16.07.2019 18:00:00 - 22.07.2019 18:00:00 (CEST)Bergerac, France (7530): Ensoleillement: 16.07.2019 18:00:00 - 22.07.2019 18:00:00 (CEST)Bergerac, France (7530): Quantités de précipitations: 16.07.2019 18:00:00 - 22.07.2019 18:00:00 (CEST)
Date & Time tt [°C] td [°C] tt 5cm [°C] tt -20cm [°C] tt -100cm [°C] ff [km/h] ff [knt] fx [km/h] fx [knt] dd ppp [hPa] vv [km] sd [min] rr [mm]
22.07.2019 18:00:00 36,2 16,9 41,1 24,1 19,7 11 6 25 13 NE 1017,9 60 60 0,0
22.07.2019 17:00:00 36,3 17,5 43,1 23,8 19,6 9 5 24 13 ENE 1018,7 49 60 0,0
22.07.2019 16:00:00 35,3 17,1 42,7 23,4 19,7 10 5 24 13 NE 1019,2 60 60 0,0
22.07.2019 15:00:00 34,5 17,3 42,1 23,0 19,6 8 4 20 11 NNE 1019,9 60 60 0,0
22.07.2019 14:00:00 34,2 17,4 41,1 22,7 19,6 8 4 19 10 E 1020,5 60 60 0,0
22.07.2019 13:00:00 32,4 16,7 39,1 22,5 19,6 6 3 24 13 ENE 1021,3 18 60 0,0
22.07.2019 12:00:00 31,8 16,5 38,9 22,5 19,6 6 4 16 9 E 1021,8 18 60 0,0
22.07.2019 11:00:00 29,0 16,2 33,6 22,5 19,6 5 3 15 8 NNE 1022,1 60 60 0,0
22.07.2019 10:00:00 25,9 15,9 28,6 22,6 19,6 4 2 11 6 E 1022,4 49 60 0,0
22.07.2019 09:00:00 22,5 15,3 22,4 22,7 19,6 4 2 8 4 E 1022,7 42 60 0,0
22.07.2019 08:00:00 18,8 15,7 15,7 22,9 19,6 4 2 7 4 ENE 1022,4 39 60 0,0
22.07.2019 07:00:00 16,0 14,2 13,8 23,1 19,6 2 1 4 2 E 1022,3 38 0 0,0
22.07.2019 06:00:00 15,9 13,7 13,6 23,3 19,6 2 1 5 3 E 1022,4 38 0 0,0
22.07.2019 05:00:00 16,6 13,5 13,6 23,4 19,6 2 1 5 3 SW 1022,5 48 0 0,0
22.07.2019 04:00:00 17,8 13,5 14,2 23,6 19,6 4 2 9 5 WSW 1022,6 56 0 0,0
22.07.2019 03:00:00 18,6 14,1 15,4 23,8 19,6 2 1 10 6 SSW 1022,8 60 0 0,0
22.07.2019 02:00:00 19,4 13,8 15,8 23,9 19,6 7 4 10 6 WSW 1022,9 60 0 0,0
22.07.2019 01:00:00 20,7 14,3 16,9 24,1 19,6 8 5 9 5 WSW 1023,0 60 0 0,0
22.07.2019 00:00:00 20,9 15,0 17,8 24,2 19,6 5 3 8 4 WSW 1022,6 59 0 0,0
21.07.2019 23:00:00 21,8 15,4 18,7 24,2 19,6 3 2 6 3 W 1022,3 59 0 0,0
21.07.2019 22:00:00 26,0 14,1 20,4 24,3 19,6 3 2 18 10 N 1021,6 53 12 0,0
21.07.2019 21:00:00 28,7 14,9 27,6 24,2 19,6 9 5 23 12 N 1021,1 18 54 0,0
21.07.2019 20:00:00 30,5 15,8 32,0 24,1 19,6 16 8 29 16 WNW 1020,4 46 56 0,0
21.07.2019 19:00:00 30,9 15,7 33,7 23,9 19,6 11 6 21 11 W 1020,3 53 48 0,0
21.07.2019 18:00:00 31,0 15,4 35,2 23,6 19,6 9 5 20 11 WNW 1020,3 50 53 0,0
21.07.2019 17:00:00 31,1 15,9 38,9 23,2 19,6 8 4 24 13 W 1020,5 59 60 0,0
21.07.2019 16:00:00 31,0 15,8 38,5 22,9 19,6 6 4 21 12 W 1021,0 19 60 0,0
21.07.2019 15:00:00 29,6 15,3 35,7 22,6 19,6 10 5 23 12 WNW 1021,4 20 56 0,0
21.07.2019 14:00:00 28,9 15,1 36,1 22,4 19,6 10 6 20 11 NW 1021,9 60 60 0,0
21.07.2019 13:00:00 27,8 14,8 34,7 22,2 19,6 8 5 22 12 NNW 1022,3 60 60 0,0
21.07.2019 12:00:00 26,5 14,9 33,8 22,2 19,6 8 4 17 9 W 1022,4 51 60 0,0
21.07.2019 11:00:00 24,4 15,3 29,1 22,2 19,5 7 4 16 8 NNE 1022,4 48 7 0,0
21.07.2019 10:00:00 23,3 15,6 24,6 22,2 19,6 5 3 14 8 N 1022,4 54 45 0,0
21.07.2019 09:00:00 20,8 16,4 20,9 22,4 19,6 6 3 13 7 WNW 1022,4 56 36 0,0
21.07.2019 08:00:00 18,9 17,2 17,4 22,4 19,5 8 5 11 6 W 1022,0 34 26 0,0
21.07.2019 07:00:00 17,5 16,4 15,4 22,6 19,5 6 3 9 5 WSW 1021,8 19 4 0,0
21.07.2019 06:00:00 17,3 15,8 14,8 22,7 19,5 7 4 10 5 W 1021,4 20 0 0,0
21.07.2019 05:00:00 17,3 15,8 14,6 22,9 19,5 5 3 7 4 WSW 1021,0 36 0 0,0
21.07.2019 04:00:00 17,4 15,4 14,9 23,1 19,6 4 2 5 3 WSW 1021,2 36 0 0,0
21.07.2019 03:00:00 18,7 15,9 15,6 23,2 19,5 3 2 11 6 WSW 1021,1 44 0 0,0
21.07.2019 02:00:00 20,2 16,0 17,1 23,3 19,5 5 3 16 9 NNW 1021,2 58 0 0,0
21.07.2019 01:00:00 20,8 16,4 19,1 23,4 19,5 10 6 26 14 NW 1021,0 53 0 0,0
21.07.2019 00:00:00 22,1 16,6 20,7 23,5 19,5 14 8 26 14 WNW 1020,5 59 0 0,0
20.07.2019 23:00:00 23,2 16,3 21,6 23,5 19,5 15 8 26 14 WNW 1019,6 60 0 0,0
20.07.2019 22:00:00 24,7 15,9 22,1 23,5 19,5 10 5 23 12 WNW 1018,2 60 12 0,0
20.07.2019 21:00:00 27,1 16,1 26,7 23,5 19,5 15 8 25 13 NW 1017,5 60 32 0,0
20.07.2019 20:00:00 28,1 15,7 28,2 23,3 19,5 16 8 24 13 NW 1016,9 59 1 0,0
20.07.2019 19:00:00 29,2 16,0 32,5 23,1 19,5 16 9 30 16 W 1016,5 25 60 0,0
20.07.2019 18:00:00 29,6 16,8 31,1 22,8 19,5 18 10 32 18 WNW 1016,4 31 46 0,0
20.07.2019 17:00:00 29,8 16,2 35,0 22,6 19,5 11 6 31 17 WNW 1016,3 35 57 0,0
20.07.2019 16:00:00 30,0 16,8 35,9 22,3 19,5 10 6 26 14 W 1016,4 60 54 0,0
20.07.2019 15:00:00 29,3 16,8 34,2 22,0 19,5 11 6 35 19 W 1016,5 39 58 0,0
20.07.2019 14:00:00 27,3 16,0 31,5 21,9 19,5 10 5 22 12 W 1016,5 43 24 0,0
20.07.2019 13:00:00 26,4 16,3 29,6 21,8 19,5 8 5 20 11 WSW 1016,5 36 32 0,0
20.07.2019 12:00:00 25,3 17,0 28,4 21,7 19,5 7 4 20 11 S 1016,4 33 20 0,0
20.07.2019 11:00:00 24,1 16,1 25,9 21,7 19,5 9 5 18 10 W 1016,1 20 37 0,0
20.07.2019 10:00:00 22,4 17,1 19,4 21,8 19,5 5 3 10 5 S 1015,5 46 11 0,2
20.07.2019 09:00:00 21,1 15,4 19,0 21,9 19,5 6 3 14 8 ESE 1014,8 54 50 0,0
20.07.2019 08:00:00 17,2 15,2 14,7 22,1 19,5 8 4 16 9 ESE 1014,2 34 6 0,0
20.07.2019 07:00:00 15,9 13,9 14,0 22,2 19,5 3 1 18 10 NE 1013,5 31 0 0,0
20.07.2019 06:00:00 15,4 13,6 13,9 22,4 19,5 2 1 5 3 SSE 1013,3 41 0 0,0
20.07.2019 05:00:00 14,8 13,2 13,0 22,6 19,5 5 3 10 6 E 1012,4 34 0 0,0
20.07.2019 04:00:00 15,0 13,2 12,1 22,8 19,5 6 4 10 6 ENE 1012,2 36 0 0,0
20.07.2019 03:00:00 14,8 12,8 12,1 23,0 19,5 3 2 9 5 ESE 1012,8 43 0 0,0
20.07.2019 02:00:00 15,6 12,9 12,9 23,2 19,5 3 2 10 5 E 1012,7 43 0 0,0
20.07.2019 01:00:00 16,6 13,3 13,2 23,3 19,5 6 3 11 6 E 1012,6 51 0 0,0
20.07.2019 00:00:00 17,2 13,7 14,5 23,4 19,5 9 5 10 6 E 1012,6 44 0 0,0
19.07.2019 23:00:00 19,2 13,4 14,3 23,5 19,5 2 1 4 2 NE 1012,9 58 0 0,0
19.07.2019 22:00:00 22,5 14,1 16,8 23,5 19,5 2 1 6 3 E 1012,3 60 6 0,0
19.07.2019 21:00:00 29,2 12,2 26,3 23,4 19,5 3 2 10 6 SSW 1012,2 59 60 0,0
19.07.2019 20:00:00 29,9 11,4 32,1 23,2 19,5 7 4 15 8 SSE 1012,5 58 60 0,0
19.07.2019 19:00:00 30,5 11,0 35,7 23,0 19,5 6 3 21 12 ENE 1013,0 58 60 0,0
19.07.2019 18:00:00 29,7 11,7 36,9 22,6 19,5 6 4 19 11 SSE 1013,6 60 60 0,0
19.07.2019 17:00:00 30,1 12,1 37,2 22,3 19,5 5 3 19 11 NE 1014,3 58 60 0,0
19.07.2019 16:00:00 29,4 11,9 37,3 21,9 19,5 10 5 22 12 E 1015,1 50 60 0,0
19.07.2019 15:00:00 28,2 13,7 36,7 21,6 19,5 9 5 20 11 NNE 1015,8 53 60 0,0
19.07.2019 14:00:00 26,9 13,6 36,1 21,4 19,5 10 6 21 11 NNE 1016,7 51 60 0,0
19.07.2019 13:00:00 25,7 13,5 25,7 21,2 19,5 5 3 16 9 NE 1017,3 48 39 0,0
19.07.2019 12:00:00 23,8 13,1 26,8 21,1 19,5 6 3 18 10 NW 1017,9 47 31 0,0
19.07.2019 11:00:00 24,0 14,1 30,8 21,2 19,5 4 2 14 8 SW 1018,1 30 60 0,0
19.07.2019 10:00:00 22,3 15,4 25,8 21,2 19,5 3 1 10 5 WSW 1018,6 34 60 0,0
19.07.2019 09:00:00 18,8 14,5 18,9 21,4 19,5 5 3 8 5 E 1018,6 28 60 0,0
19.07.2019 08:00:00 15,0 13,5 11,8 21,6 19,5 5 3 8 4 E 1018,8 17 60 0,0
19.07.2019 07:00:00 12,5 11,4 9,6 21,8 19,5 6 4 8 4 ENE 1018,7 10 6 0,0
19.07.2019 06:00:00 12,3 11,2 9,5 21,9 19,5 5 3 6 4 ENE 1018,5 10 0 0,0
19.07.2019 05:00:00 12,9 11,6 9,8 22,2 19,6 5 3 7 4 E 1018,8 12 0 0,0
19.07.2019 04:00:00 13,7 11,9 9,8 22,3 19,5 0 0 5 3 N 1018,6 16 0 0,0
19.07.2019 03:00:00 14,8 11,9 11,6 22,5 19,5 5 3 8 5 WSW 1018,8 33 0 0,0
19.07.2019 02:00:00 15,3 12,4 11,9 22,6 19,5 5 3 11 6 SW 1018,8 37 0 0,0
19.07.2019 01:00:00 17,1 12,6 13,6 22,8 19,5 9 5 13 7 W 1018,8 46 0 0,0
19.07.2019 00:00:00 18,1 12,5 15,1 22,9 19,5 8 5 13 7 WSW 1018,5 48 0 0,0
18.07.2019 23:00:00 19,5 12,5 16,4 22,9 19,5 10 5 19 10 WNW 1018,0 53 0 0,0
18.07.2019 22:00:00 22,0 12,8 19,7 22,9 19,5 12 7 22 12 WNW 1017,6 57 14 0,0
18.07.2019 21:00:00 24,4 12,4 23,6 22,9 19,5 16 9 25 13 NW 1016,9 57 55 0,0
18.07.2019 20:00:00 26,4 11,3 26,2 22,8 19,5 13 7 28 15 WNW 1016,6 54 48 0,0
18.07.2019 19:00:00 27,0 11,5 26,9 22,6 19,5 14 7 29 16 W 1016,4 37 43 0,0
18.07.2019 18:00:00 26,9 11,0 29,8 22,4 19,5 16 9 37 20 WNW 1016,8 44 58 0,0
18.07.2019 17:00:00 26,4 10,9 29,1 22,2 19,5 9 5 35 19 WNW 1017,1 45 50 0,0
18.07.2019 16:00:00 26,4 10,9 30,5 21,9 19,5 16 9 35 19 W 1017,4 60 56 0,0
18.07.2019 15:00:00 25,8 11,2 27,9 21,8 19,5 14 7 30 16 NW 1017,7 54 38 0,0
18.07.2019 14:00:00 25,4 12,3 27,4 21,6 19,5 9 5 31 17 WSW 1018,0 41 30 0,0
18.07.2019 13:00:00 23,5 11,9 26,0 21,6 19,5 9 5 23 13 WNW 1018,3 43 29 0,0
18.07.2019 12:00:00 22,9 12,8 23,1 21,6 19,5 7 4 24 13 WNW 1018,7 36 21 0,0
18.07.2019 11:00:00 21,2 12,3 24,0 21,6 19,5 11 6 21 11 W 1018,6 47 25 0,0
18.07.2019 10:00:00 19,5 14,5 20,1 21,7 19,5 5 3 12 7 W 1018,7 20 2 0,0
18.07.2019 09:00:00 17,5 14,9 16,9 21,8 19,5 4 2 7 4 W 1018,6 18 0 0,0
18.07.2019 08:00:00 15,8 14,7 14,2 21,9 19,5 0 0 7 4 N 1018,4 18 2 0,0
18.07.2019 07:00:00 14,2 13,1 11,6 22,1 19,5 5 3 6 3 E 1018,0 12 0 0,0
18.07.2019 06:00:00 13,5 12,4 9,2 22,3 19,5 6 3 9 5 SSE 1017,6 10 0 0,0
18.07.2019 05:00:00 13,3 12,0 10,0 22,5 19,5 2 1 9 5 SSW 1017,7 8 0 0,0
18.07.2019 04:00:00 13,9 12,3 9,5 22,7 19,5 8 4 10 5 W 1017,6 18 0 0,0
18.07.2019 03:00:00 15,1 13,1 12,0 22,9 19,5 7 4 13 7 WSW 1017,7 18 0 0,0
18.07.2019 02:00:00 16,9 14,0 14,3 23,0 19,5 9 5 21 11 W 1017,8 30 0 0,0
18.07.2019 01:00:00 18,2 14,1 16,5 23,2 19,5 13 7 32 18 WNW 1017,5 36 0 0,0
18.07.2019 00:00:00 19,6 14,2 18,1 23,2 19,5 21 11 33 18 WNW 1017,3 40 0 0,0
17.07.2019 23:00:00 20,7 11,6 18,6 23,4 19,5 13 7 30 16 WNW 1016,9 60 0 0,0
17.07.2019 22:00:00 22,6 11,3 20,8 23,4 19,5 18 10 36 19 WNW 1016,0 60 15 0,0
17.07.2019 21:00:00 25,0 11,9 24,4 23,3 19,5 22 12 39 21 WNW 1015,1 55 60 0,0
17.07.2019 20:00:00 26,9 12,2 27,9 23,2 19,5 26 14 40 22 NW 1014,3 51 60 0,0
17.07.2019 19:00:00 29,0 12,4 31,7 23,0 19,5 24 13 39 21 WNW 1014,0 40 56 0,0
17.07.2019 18:00:00 30,3 12,2 33,7 22,8 19,5 23 12 34 18 W 1014,2 60 60 0,0
17.07.2019 17:00:00 30,6 12,0 34,5 22,5 19,5 17 9 39 21 W 1014,4 60 60 0,0
17.07.2019 16:00:00 30,3 11,8 31,0 22,2 19,5 11 6 33 18 W 1014,5 56 52 0,0
17.07.2019 15:00:00 31,0 11,4 32,5 21,9 19,5 17 9 34 18 W 1014,7 31 54 0,0
17.07.2019 14:00:00 29,3 11,4 36,6 21,7 19,5 11 6 27 15 W 1015,1 50 60 0,0
17.07.2019 13:00:00 28,3 11,8 34,4 21,5 19,5 13 7 26 14 NW 1015,4 16 60 0,0
17.07.2019 12:00:00 26,8 13,9 29,7 21,5 19,5 12 6 24 13 W 1015,7 55 46 0,0
17.07.2019 11:00:00 24,7 13,3 30,2 21,5 19,5 10 5 22 12 W 1015,7 19 60 0,0
17.07.2019 10:00:00 22,6 13,1 27,5 21,6 19,5 5 3 14 8 W 1015,8 60 60 0,0
17.07.2019 09:00:00 19,6 13,1 20,1 21,7 19,5 3 2 7 4 WNW 1016,0 35 55 0,0
17.07.2019 08:00:00 16,0 14,0 11,7 21,9 19,5 0 0 9 5 N 1015,7 39 36 0,0
17.07.2019 07:00:00 13,3 11,5 11,3 22,1 19,5 0 0 5 3 N 1015,6 17 0 0,0
17.07.2019 06:00:00 13,8 11,3 11,3 22,2 19,5 2 1 6 3 ENE 1015,2 35 0 0,0
17.07.2019 05:00:00 14,6 11,6 11,5 22,4 19,5 3 1 5 3 W 1015,3 39 0 0,0
17.07.2019 04:00:00 14,7 11,5 11,6 22,6 19,5 2 1 6 3 N 1015,4 39 0 0,0
17.07.2019 03:00:00 16,4 10,9 12,4 22,8 19,5 4 2 11 6 SW 1015,7 43 0 0,0
17.07.2019 02:00:00 18,4 11,5 14,4 23,0 19,5 8 4 12 6 WSW 1015,8 59 0 0,0
17.07.2019 01:00:00 18,8 11,4 14,2 23,1 19,5 9 5 11 6 WSW 1016,0 54 0 0,0
17.07.2019 00:00:00 19,3 11,1 13,0 23,2 19,5 10 6 16 9 WSW 1016,0 57 0 0,0
16.07.2019 23:00:00 18,1 10,7 13,3 23,3 19,5 3 2 8 5 SSE 1015,7 42 0 0,0
16.07.2019 22:00:00 23,0 9,7 16,8 23,3 19,5 5 3 18 10 W 1015,4 57 10 0,0
16.07.2019 21:00:00 27,4 9,2 25,1 23,3 19,5 12 6 32 17 NW 1015,1 60 60 0,0
16.07.2019 20:00:00 29,0 9,2 28,6 23,1 19,5 15 8 23 12 WNW 1014,9 50 60 0,0
16.07.2019 19:00:00 30,1 9,0 34,2 22,9 19,5 9 5 27 14 WNW 1014,8 43 60 0,0
16.07.2019 18:00:00 30,6 9,5 35,6 22,6 19,5 14 8 29 16 W 1015,0 19 60 0,0

tt = Température de l'air
td = dewpoint
tt 5cm = Température de l'air 5cm
tt -20cm = Température de l'air -20cm
tt -100cm = Température de l'air -100cm
ff = Vitesse du vent
fx = gusts
dd = Direction du vent
ppp = reduced air pressure
vv = visibility
sd = Ensoleillement
rr = Quantités de précipitations

stations d'obs. à proximité